User: anonymous   Login
Location: Unspecified
(0.0000°N, 0.0000°E)
Time: 01:21:18
(UTC+00:00)
Language:

STARLINK-1059 - Orbit

View from above orbital plane
View from above orbital plane
View from above satellite
View from above satellite

Ground track
Ground track

The orbit data is extracted from the following two-line orbital elements,

1 44764C 19074BD  21016.82062439  .00001021  00000-0  68395-4 0   169
2 44764  53.0590 356.6900 0001762  56.9197 185.2765 15.06400507    14
Epoch (UTC): 16 January 2021 19:41:41
Eccentricity: 0.0001762
inclination: 53.0590°
perigee height: 546 km
apogee height: 548 km
right ascension of ascending node: 356.6900°
argument of perigee: 56.9197°
revolutions per day: 15.06400507
mean anomaly at epoch: 185.2765°
orbit number at epoch: 1

The dashed part of the orbit path shows where the satellite is in the earth's shadow,  

DLR